New York JFK, NY

10:37 AM EST on December 09, 2019 (GMT -0500)
Kennedy International

Weather History for KJFK - November, 2019

Change the Weather History Date:

Saturday, November 16, 2019

  Actual Average Record
Temperature  
Mean Temperature 37 °F 47 °F  
Max Temperature 42 °F 54 °F 72 °F (2001)
Min Temperature 32 °F 41 °F 20 °F (1967)
Degree Days  
Heating Degree Days 28 18  
Month to date heating degree days 340 245  
Since 1 July heating degree days 535 544  
Cooling Degree Days 0 0  
Month to date cooling degree days 0 0  
Year to date cooling degree days 1152 1005  
Moisture  
Dew Point 11 °F    
Average Humidity 37    
Maximum Humidity 62    
Minimum Humidity 20    
Precipitation  
Precipitation 0.00 in 0.11 in 1.85 in (1985)
Month to date precipitation 0.09 1.68  
Year to date precipitation 42.52 37.76  
Snow  
Snow 0.00 in 0.00 in - ()
Month to date snowfall T 0.0  
Since 1 July snowfall T 0.0  
Snow Depth 0.00 in    
Sea Level Pressure  
Sea Level Pressure 30.41 in    
Wind  
Wind Speed 13 mph ()    
Max Wind Speed 28 mph    
Max Gust Speed 36 mph    
Visibility 10.0 miles    
Events      
T = Trace of Precipitation, MM = Missing Value Source: Averaged Metar Reports

Daily Weather History Graph

Daily Weather History Graph

Search for Another Location

Airport or City:

Astronomy

Nov. 16, 2019 Rise Set
Actual Time 6:42 AM EST 4:36 PM EST
Civil Twilight 6:13 AM EST 5:06 PM EST
Nautical Twilight 5:40 AM EST 5:39 PM EST
Astronomical Twilight 5:07 AM EST 6:11 PM EST
Moon 8:06 PM EST (11/16) 10:34 AM EST (11/16)
Length of Visible Light 10h 52m
Length of Day
9h 54m
Waning Gibbous, 82% of the Moon is Illuminated
Nov 16
Waning Gibbous
Nov 19
Last Quarter
Nov 26
New
Dec 4
First Quarter
Dec 12
Full

Hourly Weather History & Observations

Time (EST) Temp. Windchill Dew Point Humidity Pressure Visibility Wind Dir Wind Speed Gust Speed Precip Events Conditions
12:51 AM 41.0 °F 33.1 °F 26.1 °F 55% 30.24 in 10.0 mi NNW 15.0 mph - N/A   Partly Cloudy
1:51 AM 39.9 °F 33.4 °F 25.0 °F 55% 30.26 in 10.0 mi NNW 10.4 mph - N/A   Clear
2:51 AM 39.0 °F 33.4 °F 26.1 °F 60% 30.27 in 10.0 mi North 8.1 mph - N/A   Clear
3:51 AM 39.0 °F 30.6 °F 27.0 °F 62% 30.29 in 10.0 mi NNE 15.0 mph - N/A   Partly Cloudy
4:51 AM 37.9 °F 28.5 °F 21.9 °F 53% 30.33 in 10.0 mi NNE 17.3 mph 26.5 mph N/A   Partly Cloudy
5:51 AM 36.0 °F 27.1 °F 14.0 °F 41% 30.37 in 10.0 mi NNE 13.8 mph - N/A   Partly Cloudy
6:51 AM 34.0 °F 25.0 °F 14.0 °F 44% 30.42 in 10.0 mi NNE 12.7 mph - N/A   Partly Cloudy
7:51 AM 35.1 °F 24.1 °F 12.9 °F 40% 30.44 in 10.0 mi NE 19.6 mph 25.3 mph N/A   Partly Cloudy
8:51 AM 36.0 °F 24.2 °F 5.0 °F 27% 30.46 in 10.0 mi NE 24.2 mph 34.5 mph N/A   Partly Cloudy
9:51 AM 37.0 °F 26.2 °F 5.0 °F 26% 30.47 in 10.0 mi NE 21.9 mph 34.5 mph N/A   Partly Cloudy
10:51 AM 39.0 °F 29.0 °F 5.0 °F 24% 30.47 in 10.0 mi NE 20.7 mph 32.2 mph N/A   Partly Cloudy
11:51 AM 39.9 °F 30.8 °F 5.0 °F 23% 30.45 in 10.0 mi ENE 18.4 mph 32.2 mph N/A   Partly Cloudy
12:51 PM 39.9 °F 30.5 °F 3.9 °F 22% 30.46 in 10.0 mi ENE 19.6 mph 25.3 mph N/A   Partly Cloudy
1:51 PM 41.0 °F 31.9 °F 3.0 °F 21% 30.43 in 10.0 mi NE 19.6 mph 27.6 mph N/A   Partly Cloudy
2:51 PM 39.9 °F 30.5 °F 1.9 °F 20% 30.44 in 10.0 mi ENE 19.6 mph - N/A   Partly Cloudy
3:51 PM 39.0 °F 30.3 °F 3.0 °F 22% 30.45 in 10.0 mi NE 16.1 mph - N/A   Scattered Clouds
4:51 PM 36.0 °F 29.6 °F 5.0 °F 27% 30.45 in 10.0 mi NE 8.1 mph - N/A   Scattered Clouds
6:51 PM 34.0 °F 27.2 °F 7.0 °F 32% 30.47 in 10.0 mi NNE 8.1 mph - N/A   Partly Cloudy
7:51 PM 34.0 °F 26.0 °F 5.0 °F 30% 30.47 in 10.0 mi NNE 10.4 mph - N/A   Partly Cloudy
8:51 PM 33.1 °F 25.5 °F 9.0 °F 37% 30.46 in 10.0 mi NNE 9.2 mph - N/A   Partly Cloudy
9:51 PM 32.0 °F 25.6 °F 10.9 °F 42% 30.45 in 10.0 mi NNE 6.9 mph - N/A   Partly Cloudy
10:51 PM 32.0 °F 23.0 °F 10.9 °F 42% 30.45 in 10.0 mi NNE 11.5 mph - N/A   Partly Cloudy
11:51 PM 32.0 °F 22.5 °F 12.0 °F 44% 30.45 in 10.0 mi NNE 12.7 mph - N/A   Partly Cloudy